[ hide orbit diagram ]
For accurate long-term ephemerides, please instead use our Horizons system.This orbit viewer was implemented using two-body methods, and hence should not be used for determining accurate long-term trajectories (over several years or decades) or planetary encounter circumstances.
Orbital Elements at Epoch 2459000.5 (2020-May-31.0) TDB
Reference: JPL 16 (heliocentric ecliptic J2000)
Element | Value | Uncertainty (1-sigma) | Units |
e | .109198586003933 | 4.9942e-08 | |
a | 2.378620965016534 | 1.2082e-08 | au |
q | 2.118878918997418 | 1.1635e-07 | au |
i | 4.548693872102488 | 5.157e-06 | deg |
node | 293.2135936613296 | 5.8226e-05 | deg |
peri | 251.4374859892399 | 6.1674e-05 | deg |
M | 111.6379370201353 | 2.1732e-05 | deg |
tp | 2458584.976498296386 (2019-Apr-11.47649830) | 8.0054e-05 | TDB |
period | 1339.942895812567 3.67 | 1.0209e-05 2.795e-08 | d yr |
n | .2686681657293233 | 2.0471e-09 | deg/d |
Q | 2.63836301103565 | 1.3402e-08 | au |
|
| | Orbit Determination Parameters
Additional Information
|
[ show covariance matrix ]
Physical Parameter Table
Parameter |
Symbol |
Value |
Units |
Sigma |
Reference |
Notes |
absolute magnitude |
H |
16.5 |
|
n/a |
MPO427120 |
|
|
183806 (2004 BT48) Discovered 2004-Jan-21 by LINEAR at Socorro |
Reference: 20080420/Numbers.arc | Last Updated: 2008-04-23 |
|
[ show close-approach data ]
|